Powrót do katalogu

COSMOS 2251 DEB

AktywnyVLEO
NORAD 34316·DEBRIS·🇷🇺 Russia

Wystrzelony Jun 16, 1993 z Plesetsk Cosmodrome

Loading…

Następne Przeloty (najbliższe 24 godziny)

TLE

ŚwieżeSource: Space-Track

Epoka: Sep 13, 2026, 22:31 UTC

1 34316U 93036NN  26256.93834311  .00012273  00000-0  91685-3 0  9998
2 34316  74.0602 140.2128 0013165 178.3846 181.7387 15.02786660933303

Śledź COSMOS 2251 DEB w czasie rzeczywistym z AllMySat

Download on the App Store